{"data":{"norad_id":64312,"intl_designator":"2025-123X","name":"STARLINK-34384","alt_names":[],"object_type":"PAYLOAD","status":"ACTIVE","operator":null,"country":"US","launch_date":"2025-06-08","launch_site_code":"AFWTR","launch_vehicle":null,"mission":null,"orbit_class":"UNKNOWN","rcs_meters":null,"size_class":null,"mass_kg":null,"dimensions":null,"purposes":["comms"],"wikipedia_slug":null,"has_3d_model":false,"image_url":null,"decayed_at":null,"tle_current":{"epoch":"2026-09-20T20:46:14.397024Z","epoch_age_seconds":106108,"freshness":"FRESH","line1":"1 64312U 25123X   26263.86544441  .00010470  00000+0  35901-3 0  9996","line2":"2 64312  70.0004  59.9733 0003676 273.1406  86.9349 15.30398486 70913","mean_motion":15.30398486,"eccentricity":0.0003676,"inclination_deg":70.0004,"raan_deg":59.9733,"arg_perigee_deg":273.1406,"mean_anomaly_deg":86.9349,"bstar":0.00035901,"rev_number":7091,"period_min":94.093140654087,"perigee_km":472.10341566576,"apogee_km":477.14156444285,"semimajor_km":6852.7594900543,"source":"CELESTRAK","updated_at":"2026-09-21T09:00:35.309454Z"}}}